Location: Bonlanden
(49.2059°N, 10.3193°E)
Time: 12:30:50
(UTC+00:00)

Daily predictions for brighter satellites

Satellite Brightness Start Highest point End
(mag) Time Altitude Azimuth Time Altitude Azimuth Time Altitude Azimuth
Meteor 1-27 Rocket 4.2 18:08:13 10° NNW 18:13:44 68° W 18:19:17 10° S
Cosmos 2061 Rocket 4.2 18:08:27 10° SSE 18:14:40 55° E 18:20:55 10° NNE
Cosmos 1937 Rocket 3.5 18:09:37 10° NNW 18:14:55 72° ENE 18:20:11 10° SSE
COSMOS 2428 3.9 18:11:21 10° SSE 18:15:31 21° E 18:19:41 10° NE
Cosmos 1818 4.4 18:11:46 10° S 18:16:24 29° ESE 18:21:05 10° NE
Cosmos 1726 2.7 18:15:28 10° SE 18:17:43 22° E 18:20:00 10° NE
Cosmos 2233 Rocket 4.1 18:12:19 10° SSE 18:18:14 54° E 18:24:12 10° NNE
Cosmos 468 Rocket 4.2 18:14:42 10° SSW 18:19:48 80° WNW 18:24:58 10° NNE
Lacrosse 4 Rocket 2.1 18:15:51 10° NNW 18:20:00 41° NE 18:24:07 10° ESE
Meteor 2-4 Rocket 3.9 18:14:12 10° N 18:20:10 72° ENE 18:26:03 10° SSE
Cosmos 1943 Rocket 3.7 18:16:12 10° N 18:20:12 20° NE 18:24:11 10° E
USA 59 Rocket 0.9 18:17:52 10° NNW 18:21:06 31° NE 18:25:12 10° ESE
Cosmos 2292 Rocket 3.3 18:16:52 10° N 18:21:18 85° W 18:24:45 10° S
Cosmos 372 Rocket 4.1 18:17:36 10° NNW 18:22:48 83° WSW 18:28:00 10° SSE
ADEOS 3.6 18:19:02 10° SSE 18:24:16 88° ENE 18:29:31 10° NNW
Cosmos 841 Rocket 3.5 18:19:51 10° S 18:24:57 59° ESE 18:30:03 10° NNE
Intercosmos 24 4.4 18:22:50 10° NNW 18:26:21 59° W 18:30:10 10° S
PAYLOAD B 4.3 18:22:10 10° SSE 18:27:40 62° ENE 18:33:13 10° N
Cosmos 1328 Rocket 4.2 18:25:13 10° N 18:29:10 34° ENE 18:33:06 10° SE
Meteor 1-4 Rocket 3.7 18:28:12 10° NNE 18:29:57 16° ENE 18:31:20 12° ESE
Aureole 1 Rocket 4.0 18:26:13 10° NNW 18:30:38 45° WSW 18:34:08 10° S
USA 308 1.6 18:30:19 10° NNW 18:31:05 19° NNE 18:31:35 15° ENE
Cosmos 1674 3.2 18:28:46 10° N 18:31:49 31° ENE 18:34:49 10° SE
Terra 3.8 18:31:34 10° ENE 18:33:08 12° NE 18:34:43 10° NNE
CZ-4B DEB 4.2 18:27:46 10° SSE 18:33:18 85° ENE 18:38:51 10° NNW
Cosmos 1743 2.7 18:29:52 10° SSE 18:33:19 47° E 18:36:45 10° NNE
SeaSat 1 4.5 18:31:31 10° NNE 18:35:48 31° NW 18:40:04 10° WSW
Tsikada Rocket 4.0 18:29:53 10° N 18:36:11 87° E 18:42:31 10° S
Cosmos 2278 Rocket 3.1 18:31:28 10° NNW 18:36:31 32° NE 18:41:07 12° ESE
Cosmos 540 Rocket 4.5 18:31:47 10° SW 18:36:45 51° WNW 18:41:44 10° NNE
NOSS 2-1 (C) 4.0 18:34:14 10° NNW 18:37:36 40° NE 18:41:25 13° ESE
Kosmos-1783 4.5 18:36:56 10° SSE 18:38:14 13° SE 18:38:14 13° SE
Meteor 1-18 Rocket 4.3 18:32:54 10° N 18:38:53 78° ENE 18:44:46 10° SSE
CZ-4B R/B 3.3 18:35:35 10° SSE 18:40:58 60° ENE 18:46:18 10° N
CZ-4B R/B 2.7 18:37:15 10° SSE 18:40:59 83° ENE 18:44:58 10° NNW
Iridium 4 Rocket 2.9 18:36:49 10° N 18:41:05 67° E 18:45:11 10° SSE
Genesis I 3.2 18:37:42 10° SW 18:41:07 71° NW 18:44:38 10° NE
Cosmos 2016 Rocket 4.3 18:38:05 10° SSW 18:44:10 72° WNW 18:50:17 10° N
Resurs 1-3 4.4 18:40:53 10° S 18:45:08 55° W 18:49:24 10° NNW
USA 290 3.9 18:42:56 10° N 18:45:27 20° NE 18:47:00 15° E
TSX-5 3.6 18:43:23 10° NNW 18:46:28 47° NE 18:48:41 16° SE
CARTOSAT-1 3.5 18:42:34 10° SSE 18:46:46 65° ENE 18:51:00 10° N
SPOT 5 3.9 18:45:11 14° ESE 18:48:17 25° ENE 18:52:01 10° N
SPOT 1/Viking Rocket 4.0 18:43:31 10° S 18:48:39 64° WSW 18:53:49 10° NNW
NOSS 8 (A) 4.4 18:47:30 10° SW 18:51:33 85° SE 18:54:43 10° NE
ATLAS 2AS CENTAUR R/B 4.0 18:46:41 10° WSW 18:53:33 44° NNW 19:00:12 10° NE
USA 306 3.9 18:52:08 10° S 18:54:09 17° SE 18:54:09 17° SE
ATLAS CENTAUR R/B 4.0 18:51:31 10° WNW 18:56:13 39° SW 19:03:13 10° SSE
USA 215 4.4 18:52:26 10° ENE 18:57:00 20° ESE 19:01:33 10° SSE
ARGOS Delta rocket 4.1 18:52:05 10° S 18:57:16 78° WSW 19:02:13 10° NNW
Cosmos 1151 Rocket 3.9 18:53:08 10° NNW 18:57:17 50° W 19:01:24 10° S
MOS 1-B 4.4 18:52:21 10° SSE 18:58:04 66° ENE 19:03:50 10° N
Okean O Rocket 1.9 18:54:28 12° SE 18:58:24 50° ENE 19:02:43 10° N
Cosmos 2360 Rocket 3.0 18:52:55 10° SW 18:58:28 55° NW 19:04:01 10° NNE
Cosmos 1340 2.7 18:57:18 10° SSW 19:00:32 66° WNW 19:03:49 10° N
USA 186 1.9 18:58:50 10° S 19:02:01 75° WSW 19:05:16 10° NNW
Resurs 01 Rocket 1.6 18:58:31 10° SSE 19:02:58 87° W 19:07:25 10° NNW
GRACE-FO 1 4.5 19:03:22 10° SSE 19:06:52 61° E 19:10:22 10° N
Cosmos 2237 Rocket 3.3 19:04:46 17° SE 19:07:13 22° E 19:11:23 10° NE
GRACE-FO 2 4.5 19:03:47 10° SSE 19:07:16 62° E 19:10:47 10° N
Cosmos 2322 Rocket 3.7 19:02:08 10° WSW 19:07:30 41° NW 19:12:54 10° NNE
Helios 1A 3.7 19:04:52 10° N 19:08:52 56° WNW 19:12:50 10° SSW
MOS 1 Rocket 4.4 19:06:49 20° ESE 19:09:23 31° ENE 19:13:55 10° N
Cosmos 1814 Rocket 4.2 19:06:11 10° S 19:11:17 51° ESE 19:16:23 10° NNE
ACS3 Solar Sail 2.0 19:05:09 10° SSE 19:11:21 63° ENE 19:17:40 10° N
BlueWalker 3 1.8 19:09:55 10° WNW 19:13:42 85° NNE 19:15:32 29° ESE
NOSS 2-1 (E) 3.5 19:10:00 10° NW 19:13:42 72° NE 19:16:32 24° SE
Cosmos 44 Rocket 3.6 19:09:13 10° NW 19:13:55 60° WSW 19:17:37 15° SSE
Okean-O 3.0 19:12:12 23° SE 19:14:36 43° ENE 19:18:47 10° N
Cosmos 1515 Rocket 3.8 19:11:05 10° N 19:15:16 47° ENE 19:17:32 24° SE
Cosmos 2333 Rocket 3.4 19:09:56 10° SW 19:15:27 46° NW 19:21:01 10° NNE
Feng Yun 1-1 Rocket 4.4 19:10:50 10° SSE 19:16:34 80° WSW 19:22:29 10° NNW
Cosmos 2219 Rocket 2.6 19:13:37 10° SW 19:19:17 68° WNW 19:24:58 10° NNE
Sich 1 4.4 19:20:25 20° ENE 19:20:25 20° ENE 19:23:12 10° NE
MetOp-B 4.5 19:17:45 22° SE 19:20:55 48° ENE 19:26:04 10° N
CSL-04 Rocket 3.8 19:17:48 10° S 19:23:11 74° WSW 19:28:33 10° NNW
NOSS 2-1 (D) 3.4 19:20:01 10° NW 19:23:43 89° NE 19:26:15 27° SE
BREEZE-M DEB (TANK) 1.7 19:22:46 10° WSW 19:24:49 70° SSE 19:25:16 51° ESE
Cosmos 1842 3.0 19:22:03 10° N 19:25:41 87° W 19:27:54 22° S
Cosmos 1766 Rocket 3.8 19:28:04 10° SSW 19:32:23 71° W 19:36:46 10° N
USA 267 3.7 19:29:00 19° E 19:33:44 56° NNE 19:40:07 10° WNW
Cosmos 1500 Rocket 4.3 19:34:22 31° E 19:34:23 31° E 19:38:14 10° NNE
DELTA 2 DEB (DPAF) 4.2 19:30:52 10° NNE 19:34:53 45° E 19:36:01 36° SE
SWARM A 4.3 19:34:27 45° SE 19:35:15 59° E 19:38:43 10° N
Cosmos 1980 4.1 19:30:26 10° S 19:35:36 38° ESE 19:40:49 10° NE
Cosmos 2369 Rocket 4.1 19:33:18 10° N 19:37:11 18° NE 19:39:53 14° ENE
BREEZE-M R/B 4.1 19:33:33 10° W 19:38:08 84° S 19:49:01 20° ESE
Meteor 2-17 Rocket 4.5 19:32:50 10° NNW 19:38:55 80° W 19:44:32 12° S
Meteor 1-13 Rocket 4.3 19:33:51 10° N 19:39:46 68° ENE 19:43:01 27° SSE
Cosmos 2322 3.8 19:34:23 10° SSW 19:40:03 81° WNW 19:45:45 10° NNE
USA 276 1.9 19:38:57 10° W 19:41:31 68° NW 19:41:31 68° NW
USA 32 4.3 19:37:00 10° N 19:42:04 47° ENE 19:43:41 35° SE
Cosmos 1400 Rocket 4.4 19:39:05 10° NNW 19:42:34 32° W 19:45:59 10° SSW
Spot 2 Rocket 4.2 19:41:51 31° E 19:43:06 36° ENE 19:47:41 10° N
MOS 1 4.2 19:42:10 23° SSE 19:45:50 86° ENE 19:51:34 10° NNW
PSLV R/B 3.7 19:44:57 36° S 19:46:18 70° WSW 19:49:53 10° NNW
Cosmos 1707 3.0 19:43:43 10° NNW 19:47:13 57° W 19:48:45 30° SSW
Cosmos 1315 Rocket 2.9 19:44:03 10° N 19:47:56 52° ENE 19:48:16 50° E
CZ-4 R/B 3.9 19:45:39 10° SW 19:48:19 18° W 19:51:02 10° NW
Meteor 2-10 4.1 19:44:16 17° S 19:48:35 65° E 19:54:13 10° NNE
Cosmos 1428 Rocket 4.5 19:42:42 10° N 19:48:46 60° ENE 19:51:28 33° SE
Cosmos 1733 2.7 19:49:19 73° SE 19:49:28 74° E 19:52:55 10° NNE
In-Cosmos 22 4.2 19:44:12 10° N 19:49:59 84° ENE 19:53:04 29° SSE
Cosmos 1570 Rocket 4.3 19:49:52 38° SE 19:51:03 44° ESE 19:56:03 10° NE
Cosmos 1408 Rocket 3.5 19:50:27 47° SE 19:51:22 58° E 19:55:42 10° NNE
Cosmos 1536 2.8 19:55:08 29° SSW 19:56:57 75° W 20:00:48 10° N
Lacrosse 4 Rocket 3.1 19:54:20 10° NW 19:58:05 28° WSW 20:00:25 17° SSW
COSMOS 2428 2.9 19:53:27 10° SW 19:59:09 73° WNW 20:04:55 10° NNE
Cosmos 1818 4.1 19:54:16 10° SW 19:59:39 60° NW 20:05:06 10° NE
Cosmos 2195 Rocket 4.4 19:55:36 10° N 20:01:42 67° ENE 20:03:57 39° SSE
Nadezhda 4 Rocket 4.0 19:55:26 10° N 20:01:42 83° W 20:05:35 25° S
Meteor 1-23 Rocket 4.2 19:56:10 10° N 20:01:45 62° ENE 20:03:21 44° SE
Meteor 1-4 Rocket 4.1 19:59:39 10° NW 20:01:46 21° W 20:02:22 19° WSW
Cosmos 1356 Rocket 4.2 19:57:46 10° NNW 20:01:49 49° W 20:03:51 26° SSW
Cosmos 1092 Rocket 4.1 19:57:36 10° N 20:03:51 58° ENE 20:05:51 41° SE
SL-16 R/B 4.3 20:07:19 12° ENE 20:07:19 12° ENE 20:07:50 10° ENE
Cosmos 1943 Rocket 2.0 19:59:15 10° NNW 20:04:48 83° ENE 20:06:28 47° SE
SL-14 R/B 3.7 20:06:01 10° N 20:09:04 46° NE 20:09:04 46° NE
Terra 1.7 20:09:10 59° ESE 20:09:51 69° ENE 20:14:33 10° N
USA 59 Rocket 1.0 20:06:54 10° NW 20:10:38 42° SW 20:11:54 34° SSW
Cosmos 2026 Rocket 4.0 20:04:23 10° N 20:10:40 66° ENE 20:12:32 45° SE
Cosmos 1464 Rocket 4.2 20:05:45 10° SSW 20:12:01 72° W 20:18:24 10° N
Cosmos 158 Rocket 3.9 20:13:21 53° E 20:13:21 53° E 20:17:38 10° NNE
Cosmos 1805 Rocket 3.6 20:14:27 60° ENE 20:14:27 60° ENE 20:18:18 10° NNE
Meteor 1-11 Rocket 3.7 20:09:42 18° SSW 20:14:02 86° W 20:19:39 10° N
CRYOSAT 2 4.2 20:10:10 10° N 20:15:05 82° E 20:16:10 55° S
Ariane Rocket 3.1 20:14:46 53° E 20:15:18 57° ENE 20:20:16 10° N
Cosmos 1125 Rocket 3.5 20:12:17 10° NNW 20:17:29 76° WSW 20:18:45 52° S
SPOT 3 Rocket 3.6 20:17:15 54° E 20:17:48 57° ENE 20:22:51 10° N
Cosmos 1634 Rocket 4.2 20:17:05 47° ESE 20:18:02 51° E 20:24:08 10° NNE
USA 290 3.9 20:16:59 10° NW 20:19:43 29° W 20:19:43 29° W
Cosmos 839 Rocket 4.4 20:11:31 10° SSW 20:20:15 70° ESE 20:27:11 10° NE
ERS-1 Rocket 2.9 20:19:35 54° S 20:20:44 83° WSW 20:25:48 10° NNW
Cosmos 2278 Rocket 2.7 20:15:22 10° NW 20:20:54 54° WSW 20:22:57 35° SSW
Meteor 2-9 Rocket 4.0 20:20:43 33° SSW 20:23:13 83° WNW 20:28:39 10° N
BREEZE-M DEB (TANK) 4.2 20:20:11 10° W 20:23:43 88° SSW 20:26:06 42° ESE
SPOT 5 3.6 20:24:19 31° SSW 20:26:06 45° W 20:30:31 10° NNW
Cosmos 1707 Rocket 4.4 20:26:00 10° N 20:29:24 40° NE 20:29:24 40° NE
Cosmos 2034 Rocket 4.1 20:26:34 22° SSW 20:30:48 75° W 20:37:00 10° N
Celestis-02/Orion 38 4.3 20:28:42 10° NNE 20:33:52 76° ESE 20:34:00 75° SE
Okean O Rocket 3.9 20:31:48 11° SW 20:34:56 20° W 20:38:15 10° NW
Cosmos 1627 Rocket 4.4 20:29:09 10° N 20:35:30 86° W 20:37:10 52° S
Cosmos 2208 Rocket 3.8 20:35:49 76° ESE 20:35:49 76° ESE 20:41:06 10° NNE
NOSS 0 Rocket 4.3 20:33:35 10° SW 20:39:47 65° NW 20:46:02 10° NNE
USA 215 3.1 20:34:22 10° ENE 20:40:53 64° SE 20:47:23 10° SW
Cosmos 1656 Rocket 4.0 20:40:37 10° NNW 20:46:10 52° NE 20:46:20 52° ENE
Meteor 1-21 4.1 20:41:20 10° NNW 20:47:06 87° W 20:47:41 73° S
MOS 1 Rocket 4.5 20:45:58 34° SW 20:47:19 41° W 20:52:13 10° NNW
Cosmos 2228 Rocket 3.6 20:42:52 10° N 20:46:31 54° NNE 20:46:31 54° NNE
Meteor 2-12 Rocket 4.4 20:42:20 10° N 20:48:31 85° W 20:49:33 64° S
Cosmos 2237 Rocket 2.4 20:46:17 17° SW 20:50:43 69° WNW 20:56:21 10° NNE
BlueWalker 3 4.3 20:48:24 10° W 20:49:46 17° W 20:49:46 17° W
Cosmos 2297 4.0 20:48:18 10° NNW 20:53:48 53° NE 20:53:48 53° NE
Aureole 3 Rocket 4.5 20:47:44 14° SSW 20:54:11 59° WNW 20:59:36 10° N
ACS3 Solar Sail 3.6 20:50:32 10° SW 20:55:52 27° W 21:01:13 10° NNW
Sich 1 4.0 20:57:04 43° WNW 20:57:07 43° WNW 21:01:14 10° N
Cosmos 2279 Rocket 3.8 21:06:50 77° E 21:06:50 77° E 21:12:59 10° NNE
NOSS 3-3 (C) 4.5 21:09:29 44° NE 21:09:29 44° NE 21:13:54 10° NE
BREEZE-M DEB (TANK) 3.3 20:57:13 10° W 21:10:43 87° S 21:10:46 86° SSE
USA 267 3.1 21:16:21 74° SSW 21:16:38 75° SW 21:23:13 10° WNW
Cosmos 2369 Rocket 2.5 21:16:35 10° NNW 21:21:39 62° NNE 21:21:39 62° NNE
NOSS 3-3 (A) 4.1 21:25:46 61° NNE 21:25:46 61° NNE 21:31:09 10° NE
SL-16 R/B 3.0 21:49:08 46° NNE 21:49:08 46° NNE 21:53:06 10° NNE
Cosmos 1943 Rocket 4.2 21:44:20 10° WNW 21:47:48 17° W 21:47:58 17° W
Terra 4.1 21:47:52 16° W 21:47:55 16° W 21:50:53 10° NW
NOSS 3-4 (A) 3.7 21:41:21 10° NW 21:47:59 86° WNW 21:47:59 86° WNW
NOSS 3-4 (C) 3.7 21:41:27 10° NW 21:48:05 86° WNW 21:48:05 86° WNW
Cosmos 2266 Rocket 4.2 21:50:02 10° NNW 21:55:29 66° NW 21:55:29 66° NW
Cosmos 1655 Rocket 4.4 22:10:41 10° NNW 22:15:58 62° NNW 22:15:58 62° NNW
USA 215 3.6 22:17:29 10° ENE 22:23:55 60° NNW 22:30:19 10° W
ATLAS 2AS CENTAUR R/B 4.2 22:33:20 10° NW 22:39:22 30° NNE 22:43:40 16° ENE
Cosmos 2369 Rocket 4.3 23:01:28 10° NW 23:03:25 17° WNW 23:03:25 17° WNW
Cosmos 1980 Rocket 4.3 23:25:47 10° N 23:30:00 21° NE 23:31:54 18° ENE
SL-16 R/B 4.3 23:30:58 18° WNW 23:32:27 20° NW 23:36:34 10° N
